{"data":{"norad_id":56692,"epoch":"2026-05-25T05:04:05.539008Z","epoch_age_seconds":56817,"freshness":"FRESH","line1":"1 56692U 23067E   26145.21117522  .00000900  00000+0  42243-4 0  9992","line2":"2 56692  43.0027 209.0736 0001500 269.9685  90.0995 15.27578419166154","mean_motion":15.27578419,"eccentricity":0.00015,"inclination_deg":43.0027,"raan_deg":209.0736,"arg_perigee_deg":269.9685,"mean_anomaly_deg":90.0995,"bstar":4.2243e-5,"rev_number":16615,"period_min":94.266846277042,"perigee_km":482.02465150198,"apogee_km":484.08300875102,"semimajor_km":6861.1908301265,"source":"CELESTRAK","updated_at":"2026-05-25T13:38:18.119592Z"}}